• In Germany
  • List of Countries
  • For 7 days
  • Water Temperature
  • Satellite Maps
  • Weather Map
  • Weather Widgets
  • user-avatar
    Login

    Hourly Weather Hobart

    Today, 23 April, Sunday

    Time Temperature Precipitation Wind Pressure Humidity
    00:00 +14°C° 0.1 mm 2 mps 754 mmHg 98%
    01:00 +13°C° 0.1 mm 2 mps 754 mmHg 98%
    02:00 +13°C° 0.2 mm 3 mps 754 mmHg 98%
    03:00 +13°C° 0.2 mm 3 mps 754 mmHg 98%
    04:00 +13°C° 0 mm 3 mps 754 mmHg 97%
    05:00 +13°C° 0.2 mm 3 mps 755 mmHg 97%
    06:00 +13°C° 0.2 mm 3 mps 755 mmHg 97%
    07:00 +13°C° 0.2 mm 2 mps 755 mmHg 97%
    08:00 +13°C° 0.1 mm 2 mps 755 mmHg 95%
    09:00 +14°C° 0.1 mm 2 mps 755 mmHg 93%
    10:00 +13°C° 0 mm 3 mps 756 mmHg 92%
    11:00 +14°C° 0.1 mm 2 mps 755 mmHg 90%
    12:00 +14°C° 0.1 mm 2 mps 755 mmHg 87%
    13:00 +15°C° 0.1 mm 2 mps 755 mmHg 85%
    14:00 +15°C° 0 mm 2 mps 755 mmHg 85%
    15:00 +15°C° 0 mm 2 mps 755 mmHg 86%
    16:00 +15°C° 0 mm 1 mps 755 mmHg 87%
    17:00 +14°C° 0 mm 1 mps 755 mmHg 90%
    18:00 +14°C° 0 mm 1 mps 755 mmHg 92%
    19:00 +13°C° 0 mm 1 mps 755 mmHg 94%
    20:00 +13°C° 0 mm 1 mps 755 mmHg 94%
    21:00 +13°C° 0 mm 1 mps 755 mmHg 95%
    22:00 +13°C° 0 mm 1 mps 755 mmHg 95%
    23:00 +12°C° 0 mm 1 mps 755 mmHg 96%

    Tomorrow, 24 April, Monday

    Time Temperature Precipitation Wind Pressure Humidity
    00:00 +12°C° 0 mm 1 mps 754 mmHg 96%
    01:00 +11°C° 0 mm 1 mps 754 mmHg 97%
    02:00 +10°C° 0 mm 2 mps 754 mmHg 97%
    03:00 +12°C° 0 mm 2 mps 753 mmHg 97%
    04:00 +12°C° 0 mm 2 mps 753 mmHg 97%
    05:00 +10°C° 0 mm 2 mps 753 mmHg 97%
    06:00 +10°C° 0 mm 2 mps 752 mmHg 98%
    07:00 +10°C° 0 mm 3 mps 752 mmHg 98%
    08:00 +12°C° 0 mm 3 mps 752 mmHg 94%
    09:00 +13°C° 0 mm 3 mps 751 mmHg 89%
    10:00 +14°C° 0 mm 4 mps 751 mmHg 85%
    11:00 +15°C° 0.1 mm 4 mps 750 mmHg 82%
    12:00 +17°C° 0.1 mm 4 mps 749 mmHg 80%
    13:00 +17°C° 0.1 mm 4 mps 749 mmHg 77%
    14:00 +18°C° 0.1 mm 4 mps 748 mmHg 76%
    15:00 +18°C° 0.1 mm 4 mps 747 mmHg 74%
    16:00 +18°C° 0.1 mm 4 mps 747 mmHg 72%
    17:00 +17°C° 0.1 mm 4 mps 746 mmHg 78%
    18:00 +14°C° 0.1 mm 4 mps 746 mmHg 84%
    19:00 +12°C° 0.1 mm 4 mps 746 mmHg 91%
    20:00 +12°C° 0 mm 4 mps 746 mmHg 91%
    21:00 +12°C° 0 mm 4 mps 745 mmHg 91%
    22:00 +12°C° 0 mm 4 mps 745 mmHg 91%
    23:00 +12°C° 0 mm 4 mps 745 mmHg 92%

    Day after tomorrow, 25 April, Tuesday

    Time Temperature Precipitation Wind Pressure Humidity
    00:00 +11°C° 0 mm 3 mps 744 mmHg 93%
    01:00 +11°C° 0 mm 3 mps 744 mmHg 95%
    02:00 +11°C° 0 mm 3 mps 744 mmHg 95%
    03:00 +10°C° 0 mm 3 mps 743 mmHg 95%
    04:00 +10°C° 0 mm 2 mps 743 mmHg 95%
    05:00 +10°C° 0.1 mm 2 mps 742 mmHg 95%
    06:00 +10°C° 0.1 mm 2 mps 742 mmHg 95%
    07:00 +10°C° 0.1 mm 2 mps 742 mmHg 96%
    08:00 +12°C° 0.1 mm 1 mps 742 mmHg 89%
    09:00 +14°C° 0.1 mm 1 mps 742 mmHg 82%
    10:00 +15°C° 0.1 mm 1 mps 741 mmHg 75%
    11:00 +16°C° 0 mm 1 mps 741 mmHg 69%
    12:00 +18°C° 0 mm 1 mps 740 mmHg 63%
    13:00 +19°C° 0 mm 1 mps 739 mmHg 57%
    14:00 +18°C° 0 mm 1 mps 739 mmHg 58%
    15:00 +18°C° 0 mm 1 mps 738 mmHg 59%
    16:00 +16°C° 0 mm 2 mps 737 mmHg 60%
    17:00 +15°C° 0 mm 2 mps 737 mmHg 68%
    18:00 +13°C° 0 mm 2 mps 737 mmHg 77%
    19:00 +10°C° 0 mm 2 mps 737 mmHg 85%
    20:00 +10°C° 0.1 mm 2 mps 736 mmHg 85%
    21:00 +10°C° 0.1 mm 3 mps 736 mmHg 85%
    22:00 +10°C° 0.1 mm 3 mps 736 mmHg 85%
    23:00 +10°C° 0.2 mm 3 mps 736 mmHg 87%

    26 April, Wednesday

    Time Temperature Precipitation Wind Pressure Humidity
    00:00 +10°C° 0.2 mm 3 mps 735 mmHg 89%
    01:00 +8°C° 0.2 mm 4 mps 735 mmHg 91%
    02:00 +8°C° 1.2 mm 5 mps 735 mmHg 92%
    03:00 +7°C° 1.2 mm 6 mps 736 mmHg 93%
    04:00 +6°C° 1.2 mm 7 mps 736 mmHg 93%
    05:00 +5°C° 0.6 mm 8 mps 737 mmHg 92%
    06:00 +5°C° 0.6 mm 8 mps 738 mmHg 90%
    07:00 +4°C° 0.6 mm 8 mps 738 mmHg 89%
    08:00 +3°C° 0.1 mm 9 mps 739 mmHg 86%
    09:00 +5°C° 0.1 mm 9 mps 740 mmHg 82%
    10:00 +5°C° 0.1 mm 9 mps 741 mmHg 79%
    11:00 +6°C° 0.1 mm 10 mps 741 mmHg 72%
    12:00 +6°C° 0.1 mm 10 mps 742 mmHg 64%
    13:00 +7°C° 0.1 mm 10 mps 742 mmHg 57%
    14:00 +6°C° 0.2 mm 10 mps 743 mmHg 59%
    15:00 +6°C° 0.2 mm 10 mps 743 mmHg 61%
    16:00 +5°C° 0.2 mm 10 mps 744 mmHg 64%
    17:00 +3°C° 0.1 mm 9 mps 744 mmHg 68%
    18:00 +4°C° 0.1 mm 8 mps 745 mmHg 72%
    19:00 +2°C° 0.1 mm 8 mps 746 mmHg 76%
    20:00 +2°C° 0.1 mm 7 mps 746 mmHg 77%
    21:00 +2°C° 0.1 mm 7 mps 747 mmHg 79%
    22:00 +2°C° 0.1 mm 7 mps 748 mmHg 80%
    23:00 +2°C° 0.1 mm 7 mps 748 mmHg 80%

    27 April, Thursday

    Time Temperature Precipitation Wind Pressure Humidity
    00:00 +1°C° 0.1 mm 6 mps 748 mmHg 80%
    01:00 +1°C° 0.1 mm 6 mps 748 mmHg 80%
    02:00 +2°C° 0 mm 6 mps 748 mmHg 80%
    03:00 +2°C° 0 mm 6 mps 749 mmHg 80%
    04:00 +2°C° 0 mm 5 mps 749 mmHg 80%
    05:00 +3°C° 0 mm 5 mps 749 mmHg 81%
    06:00 +3°C° 0 mm 5 mps 750 mmHg 82%
    07:00 +3°C° 0 mm 5 mps 750 mmHg 83%
    08:00 +5°C° 0 mm 5 mps 750 mmHg 77%
    09:00 +6°C° 0 mm 5 mps 750 mmHg 72%
    10:00 +7°C° 0 mm 5 mps 751 mmHg 66%
    11:00 +8°C° 0 mm 5 mps 751 mmHg 63%
    12:00 +9°C° 0 mm 5 mps 750 mmHg 60%
    13:00 +9°C° 0 mm 5 mps 750 mmHg 58%
    14:00 +9°C° 0 mm 5 mps 750 mmHg 60%
    15:00 +9°C° 0 mm 5 mps 750 mmHg 62%
    16:00 +9°C° 0 mm 5 mps 749 mmHg 64%
    17:00 +8°C° 0 mm 4 mps 749 mmHg 72%
    18:00 +6°C° 0 mm 4 mps 750 mmHg 79%
    19:00 +5°C° 0 mm 3 mps 750 mmHg 86%
    20:00 +5°C° 0 mm 3 mps 749 mmHg 88%
    21:00 +7°C° 0 mm 3 mps 749 mmHg 89%
    22:00 +6°C° 0 mm 4 mps 749 mmHg 90%
    23:00 +7°C° 0 mm 4 mps 748 mmHg 91%

    28 April, Friday

    Time Temperature Precipitation Wind Pressure Humidity
    00:00 +7°C° 0 mm 4 mps 748 mmHg 92%
    01:00 +9°C° 0 mm 3 mps 747 mmHg 93%
    02:00 +9°C° 0 mm 3 mps 747 mmHg 92%
    03:00 +10°C° 0 mm 4 mps 746 mmHg 92%
    04:00 +10°C° 0 mm 4 mps 746 mmHg 92%
    05:00 +10°C° 0 mm 4 mps 746 mmHg 92%
    06:00 +10°C° 0 mm 4 mps 746 mmHg 91%
    07:00 +10°C° 0 mm 4 mps 746 mmHg 91%
    08:00 +10°C° 0 mm 5 mps 745 mmHg 84%
    09:00 +13°C° 0 mm 6 mps 745 mmHg 77%
    10:00 +14°C° 0 mm 7 mps 745 mmHg 70%
    11:00 +14°C° 0 mm 7 mps 744 mmHg 70%
    12:00 +13°C° 0 mm 8 mps 743 mmHg 70%
    13:00 +13°C° 0 mm 8 mps 742 mmHg 70%
    14:00 +13°C° 0 mm 9 mps 742 mmHg 72%
    15:00 +12°C° 0 mm 9 mps 741 mmHg 73%
    16:00 +12°C° 0 mm 9 mps 740 mmHg 75%
    17:00 +12°C° 0.3 mm 9 mps 740 mmHg 78%
    18:00 +12°C° 0.3 mm 9 mps 739 mmHg 82%
    19:00 +11°C° 0.3 mm 9 mps 739 mmHg 85%
    20:00 +9°C° 0.1 mm 10 mps 739 mmHg 82%
    21:00 +8°C° 0.1 mm 10 mps 739 mmHg 80%
    22:00 +7°C° 0.1 mm 11 mps 739 mmHg 77%
    23:00 +8°C° 0.1 mm 11 mps 739 mmHg 77%
    Show more